Location: Góry Miechowskie
(50.3599°N, 20.1803°E)
Time: 20:36:03
(UTC+00:00)

ASTEX 1 - Visible Passes

Search period start: 19 September 2024 00:00
Search period end: 29 September 2024 00:00
Orbit: 714 x 739 km, 92.7° (Epoch: 19 September)

Date Brightness Start Highest point End Pass type
(mag) Time Alt. Az. Time Alt. Az. Time Alt. Az.
19 Sep 5.5 19:34:36 14° NE 19:34:36 14° NE 19:35:53 10° NNE visible
19 Sep 5.4 21:14:00 25° NNW 21:14:00 25° NNW 21:16:04 10° N visible
20 Sep 5.2 20:25:37 23° NNE 20:25:37 23° NNE 20:27:38 10° N visible
20 Sep 5.9 22:05:01 16° NW 22:05:01 16° NW 22:06:14 10° NNW visible
21 Sep 5.5 19:37:13 15° NE 19:37:13 15° NE 19:38:34 10° NNE visible
21 Sep 5.5 21:16:38 23° NNW 21:16:38 23° NNW 21:18:27 10° N visible
22 Sep 5.3 20:28:13 23° NNE 20:28:13 23° NNE 20:30:08 10° N visible
22 Sep 6.1 22:07:38 14° NW 22:07:38 14° NW 22:08:30 10° NNW visible
23 Sep 5.5 19:39:50 16° NNE 19:39:50 16° NNE 19:41:12 10° NNE visible
23 Sep 5.7 21:19:14 21° NNW 21:19:14 21° NNW 21:20:51 10° NNW visible
24 Sep 5.4 20:30:50 22° N 20:30:50 22° N 20:32:35 10° N visible
24 Sep 6.2 22:10:14 12° NW 22:10:14 12° NW 22:10:42 10° NNW visible
25 Sep 5.5 19:42:25 16° NNE 19:42:25 16° NNE 19:43:47 10° NNE visible
25 Sep 5.8 21:21:50 18° NNW 21:21:50 18° NNW 21:23:13 10° NNW visible
26 Sep 5.5 20:33:25 21° N 20:33:25 21° N 20:35:02 10° N visible
26 Sep 6.4 22:12:50 10° NW 22:12:50 10° NW 22:12:51 10° NW visible
27 Sep 5.5 19:45:00 17° NNE 19:45:00 17° NNE 19:46:19 10° NNE visible
27 Sep 6.0 21:24:24 16° NNW 21:24:24 16° NNW 21:25:32 10° NNW visible
28 Sep 5.6 20:36:00 20° N 20:36:00 20° N 20:37:27 10° N visible
